#timestamp,LO_Frequency,Hit,StdDev 
1667991615.4,286047001.8,N
1667991635.2,286047002.3,N
1667991655.0,286047000.3,N
1667991656.0,286047000.3,N
1667991675.8,286046999.9,N
1667991695.6,286046999.7,N
1667991715.5,286047001.0,N
1667991735.3,286046998.5,N
1667991755.1,286046997.0,N
1667991775.9,286047016.8,Y
1667991795.7,286047015.3,P
1667991815.6,286047017.2,N
1667991835.4,286047014.9,N
1667991855.2,286047017.2,N
1667991875.1,286047014.5,N
1667991876.0,286047014.5,N
1667991895.8,286047016.8,Y
1667991915.6,286047002.4,P
1667991935.5,286047002.7,N
1667991955.3,286047002.7,N
1667991975.2,286047004.1,N
1667991995.9,286047001.8,N
1667992015.7,286046986.8,Y
1667992035.6,286046982.4,P
1667992055.4,286046980.3,N
1667992075.2,286046979.0,N
1667992095.1,286046980.8,N
1667992096.0,286046980.8,N
1667992115.8,286046977.7,N
1667992135.7,286046981.1,N
1667992155.5,286046979.9,N
1667992175.3,286046983.5,N
1667992195.2,286046983.3,N
1667992215.9,286046980.5,N
1667992235.7,286046984.1,N
1667992255.6,286046982.3,N
1667992275.4,286046983.4,N
1667992295.3,286046979.1,Y
1667992315.1,286047000.9,P
1667992316.0,286047000.9,N
1667992335.8,286047000.9,N
1667992355.7,286046997.6,N
1667992375.5,286046995.1,N
1667992395.3,286046997.3,N
1667992415.2,286046999.1,N
1667992435.0,286046997.0,N
1667992435.9,286046997.0,N
1667992455.8,286046996.7,N
1667992475.6,286046997.2,N
1667992495.4,286046998.2,N
1667992515.3,286046999.4,N
1667992535.1,286046998.8,N
1667992555.8,286046997.8,N
1667992575.7,286046996.9,N
1667992595.5,286046996.7,N
1667992615.3,286046999.4,N
1667992635.2,286046994.9,N
1667992655.0,286046998.4,N
1667992655.9,286046998.4,N
1667992675.8,286046999.1,N
1667992695.6,286046996.6,N
1667992715.4,286046995.2,N
1667992735.3,286046995.1,N
1667992755.1,286046998.5,N
1667992775.8,286046998.0,N
1667992795.7,286046995.8,N
1667992815.5,286046998.8,N
1667992835.4,286046993.4,N
1667992855.2,286046993.8,Y
1667992875.0,286046997.2,P
1667992875.9,286046997.2,P
1667992895.8,286046995.3,P
1667992915.6,286046998.5,N
1667992935.5,286046999.4,N
1667992955.3,286046999.6,N
1667992975.1,286047000.7,N
1667992995.9,286046999.3,N
1667993015.7,286046998.7,N
1667993035.6,286047000.7,N
1667993055.4,286047002.8,N
1667993075.2,286047000.5,N
1667993095.1,286046998.1,N
1667993096.0,286046998.1,N
1667993115.8,286046999.1,N
1667993135.6,286046999.0,N
1667993155.5,286046999.1,N
1667993175.3,286046999.0,N
1667993195.2,286046998.2,N
1667993215.9,286046997.5,N
1667993265.8,286046999.4,E
1667993275.7,286046997.9,N
1667993295.5,286046999.5,P
1667993315.4,286046997.1,P
1667993335.2,286047014.6,Y
1667993355.0,286047004.0,P
1667993355.9,286047004.0,N
1667993375.8,286047002.1,N
1667993395.6,286047001.6,N
1667993415.5,286046999.3,N
1667993435.3,286047002.0,N
1667993455.1,286046998.7,N
1667993475.9,286047000.4,N
1667993495.7,286047018.6,Y
1667993515.5,286047016.9,P
1667993535.4,286047016.6,N
1667993555.2,286046998.6,N
1667993575.1,286046998.3,N
1667993576.0,286046998.3,N
1667993595.8,286047018.8,N
1667993615.6,286047000.8,N
1667993635.5,286047017.0,N
1667993655.3,286047000.2,N
1667993675.2,286047018.5,N
1667993695.9,286047016.3,N
1667993715.7,286047018.6,N
1667993735.6,286047017.7,N
1667993755.4,286047017.5,N
1667993775.2,286047018.0,N
1667993795.1,286047017.8,N
1667993796.0,286047017.8,N
1667993815.8,286047018.5,N
1667993835.7,286047016.2,N
1667993855.5,286047014.3,N
1667993875.3,286047016.0,N
1667993895.2,286047016.7,N
1667993915.9,286047016.7,N
1667993935.7,286047015.5,N
1667993955.6,286047016.8,N
1667993975.4,286047014.3,N
1667993995.2,286047017.1,N
1667994015.1,286047016.5,N
1667994016.0,286047016.5,N
1667994035.8,286047017.0,N
1667994055.7,286047017.2,N
1667994075.5,286047017.1,N
1667994095.3,286047014.2,N
1667994115.2,286047018.4,Y
1667994135.0,286047002.0,P
1667994135.9,286047002.0,N
1667994155.8,286047003.9,N
1667994175.6,286047002.0,N
1667994195.4,286047002.0,N
1667994215.3,286047000.3,N
1667994235.1,286047002.3,N
1667994255.8,286046999.9,N
1667994275.7,286047000.2,N
1667994295.5,286046999.7,N
1667994315.4,286047001.5,N
1667994335.2,286046999.8,N
1667994355.0,286047002.2,N
1667994355.9,286047002.2,N
1667994375.8,286047001.9,N
1667994395.6,286047003.5,N
1667994415.4,286047001.8,N
1667994435.3,286047004.4,N
1667994455.1,286047002.4,N
1667994475.9,286047001.7,N
1667994495.7,286047001.5,N
1667994515.5,286047003.2,N
1667994535.4,286047004.0,N
1667994555.2,286047004.4,N
1667994575.0,286047002.4,N
1667994575.9,286047002.4,N
1667994595.8,286047002.0,N
1667994615.6,286047000.0,N
1667994635.4,286046999.7,N
1667994655.3,286047002.5,N
1667994675.1,286047002.6,N
1667994695.9,286047002.2,N
1667994715.7,286047002.2,N
1667994735.5,286047002.4,N
1667994755.4,286047000.1,N
1667994775.2,286047000.6,N
1667994795.0,286047001.4,N
1667994795.9,286047001.4,N
1667994815.8,286047002.4,N
1667994835.6,286047002.1,N
1667994855.5,286047002.8,N
1667994875.3,286047001.9,N
1667994895.1,286047001.5,N
1667994915.9,286047001.8,N
1667994935.7,286047001.9,N
1667994955.6,286047001.8,N
1667994975.4,286047002.2,N
1667994995.2,286047003.8,Y
1667995015.1,286046999.9,P
1667995016.0,286046999.9,N
1667995035.8,286047004.2,P
1667995055.7,286047002.4,N
1667995075.5,286047000.2,N
1667995095.3,286047000.1,N
1667995115.2,286046999.9,N
1667995135.0,286047000.5,N
1667995135.9,286047000.5,N
1667995155.7,286046999.7,N
1667995175.6,286047001.0,N
1667995195.4,286047001.2,N
